Location: Dos Palmas
(32.4468°N, 116.8732°W)
Time: 23:34:32
(UTC+00:00)

Cosmos 2237 Rocket - Pass Details

Date: 20 June 2021
Orbit: 835 x 850 km, 71.0° (Epoch: 01 August)

Event Time Altitude Azimuth Distance (km) Brightness Sun altitude
Exits shadow 05:25:26 23° 71° (ENE) 1,714 3.6 -24.4°
Drops below altitude 10° 05:28:14 10° 46° (NE) 2,447 4.7 -24.8°
Sets 05:30:59 0° 35° (NE) 3,384 5.6 -25.1°
